Amateur Radio Satellites - All Passes

Search period start: 18 June 2013 02:34
Search period end: 19 June 2013 02:34
Location: Bethera, 33.2010°N, 79.7880°W

Satellite Date Start Highest point End Downlink Frequencies (MHz)
Time Altitude Azimuth
Oscar 16 18 Jun 02:49:05 02:54:09 59° 101° (E) 02:59:11 437.025 USB, Beacon 2401.1428
Uribyol 2 18 Jun 02:59:37 03:04:43 53° 100° (E) 03:09:46 436.500 FM
PCSat 18 Jun 03:00:37 03:04:18 18° 307° (NW) 03:08:00 145.825 MHz
PANSAT 18 Jun 03:10:12 03:12:53 18° 199° (SSW) 03:15:34 not established
AO-Echo 18 Jun 03:19:29 03:23:56 28° 97° (E) 03:28:26 ?
KITSAT 1 18 Jun 03:22:22 03:30:23 59° 60° (ENE) 03:38:21 435.175 FM
Uosat F 18 Jun 03:39:17 03:41:56 14° 93° (E) 03:44:34 435.120 FM
Oscar 19 18 Jun 03:43:41 03:48:31 44° 287° (WNW) 03:53:21 437.125 CW, 437.150 USB
Gurwin Techsat 1B 18 Jun 03:54:03 03:57:55 20° 95° (E) 04:01:46 435.225 FM
ITAMSAT 1 18 Jun 04:05:22 04:10:04 35° 289° (WNW) 04:14:45 435.822 SSB
AO-27 18 Jun 04:06:08 04:10:48 34° 290° (WNW) 04:15:26 436.795 MHz FM
UOSAT-12 18 Jun 04:08:43 04:12:44 33° 113° (ESE) 04:16:48 437.025 FM, 437.400 FM
Oscar 16 18 Jun 04:30:29 04:32:58 14° 295° (WNW) 04:35:27 437.025 USB, Beacon 2401.1428
Uribyol 2 18 Jun 04:40:41 04:43:43 16° 295° (WNW) 04:46:44 436.500 FM
TMSAT-1 18 Jun 04:53:17 04:58:29 53° 100° (E) 05:03:38 436.925 FM
AO-Echo 18 Jun 04:58:14 05:02:35 28° 290° (WNW) 05:07:01 ?
Uosat F 18 Jun 05:16:05 05:20:59 52° 287° (WNW) 05:25:51 435.120 FM
KITSAT 1 18 Jun 05:18:51 05:25:11 26° 255° (WSW) 05:31:31 435.175 FM
Gurwin Techsat 1B 18 Jun 05:33:03 05:37:59 40° 288° (WNW) 05:42:53 435.225 FM
AO-7 18 Jun 05:35:08 05:42:53 40° 100° (E) 05:50:33 29.400 - 29.500 MHz
UOSAT-12 18 Jun 05:49:29 05:52:57 21° 308° (NW) 05:56:27 437.025 FM, 437.400 FM
MaSat-1 18 Jun 05:57:10 05:59:05 19° 63° (ENE) 06:01:01 437.345 MHz
STRAND 1 18 Jun 06:32:37 06:37:26 44° 72° (ENE) 06:42:17 ?
TMSAT-1 18 Jun 06:34:47 06:37:55 16° 295° (WNW) 06:41:02 436.925 FM
JAS-1B 18 Jun 07:18:37 07:20:45 12° 95° (E) 07:22:58 435.800 - 435.900 CW/SSB
AO-7 18 Jun 07:27:57 07:35:31 40° 296° (WNW) 07:43:03 29.400 - 29.500 MHz
Hamsat 18 Jun 07:38:05 07:41:50 27° 96° (E) 07:45:32 145.90 MHz
STRAND 1 18 Jun 08:13:28 08:16:47 17° 266° (W) 08:20:08 ?
Saudisat 1A 18 Jun 08:27:09 08:31:41 88° 62° (ENE) 08:36:06 436.775 MHz
JAS-1B 18 Jun 09:05:44 09:11:39 76° 285° (WNW) 09:18:28 435.800 - 435.900 CW/SSB
Hamsat 18 Jun 09:14:28 09:17:41 21° 290° (WNW) 09:20:54 145.90 MHz
SO-67 18 Jun 09:17:43 09:21:10 47° 284° (WNW) 09:24:37 435.3500 MHz FM
PCSat 18 Jun 10:08:29 10:12:20 19° 53° (NE) 10:16:10 145.825 MHz
RS-15 18 Jun 10:12:12 10:18:25 16° 99° (E) 10:24:30 29.354 - 29.394 USB, Beacon 29.352 USB
HO-68 18 Jun 10:18:59 10:25:51 47° 101° (E) 10:32:41 435.675 MHz FM
Sapphire 18 Jun 10:42:12 10:47:10 35° 58° (ENE) 10:52:06 437.095 MHz 1200 baud AX-25 AFSK
Oscar 11 18 Jun 10:51:05 10:55:21 50° 100° (E) 10:59:34 145.825 FM, Beacon 2401.500 USB
SO-50 18 Jun 10:55:02 10:59:11 35° 56° (NE) 11:03:17 436.795 FM
JAS-2 18 Jun 11:09:28 11:14:49 74° 285° (WNW) 11:19:56 435.800 - 435.900 CW/SSB, 435.910 FM
PCSat 18 Jun 11:50:47 11:56:02 51° 249° (WSW) 12:01:15 145.825 MHz
HO-68 18 Jun 12:07:15 12:13:11 29° 296° (WNW) 12:19:07 435.675 MHz FM
RS-15 18 Jun 12:17:03 12:29:10 82° 115° (ESE) 12:40:47 29.354 - 29.394 USB, Beacon 29.352 USB
OPAL 18 Jun 12:23:06 12:28:02 69° 287° (WNW) 12:33:00 ?
Sapphire 18 Jun 12:25:59 12:30:22 25° 253° (WSW) 12:34:45 437.095 MHz 1200 baud AX-25 AFSK
Oscar 11 18 Jun 12:29:30 12:31:05 12° 294° (WNW) 12:32:39 145.825 FM, Beacon 2401.500 USB
SO-50 18 Jun 12:36:23 12:39:30 19° 251° (WSW) 12:42:35 436.795 FM
UOSAT-12 18 Jun 12:44:15 12:45:43 11° 47° (NE) 12:47:11 437.025 FM, 437.400 FM
Oscar 19 18 Jun 13:19:05 13:22:21 17° 66° (ENE) 13:25:37 437.125 CW, 437.150 USB
ITAMSAT 1 18 Jun 13:40:46 13:44:47 23° 68° (ENE) 13:48:49 435.822 SSB
AO-27 18 Jun 13:41:31 13:45:37 24° 68° (ENE) 13:49:45 436.795 MHz FM
Oscar 16 18 Jun 14:01:54 14:06:57 56° 74° (ENE) 14:12:00 437.025 USB, Beacon 2401.1428
Uribyol 2 18 Jun 14:13:22 14:18:25 52° 73° (ENE) 14:23:29 436.500 FM
UOSAT-12 18 Jun 14:21:48 14:26:25 78° 243° (WSW) 14:31:01 437.025 FM, 437.400 FM
AO-Echo 18 Jun 14:29:27 14:32:59 22° 69° (ENE) 14:36:34 ?
RS-15 18 Jun 14:33:04 14:42:50 29° 317° (NW) 14:52:20 29.354 - 29.394 USB, Beacon 29.352 USB
Uosat F 18 Jun 14:49:28 14:51:49 13° 65° (ENE) 14:54:10 435.120 FM
Oscar 19 18 Jun 14:56:19 15:01:17 47° 260° (W) 15:06:16 437.125 CW, 437.150 USB
ISS 18 Jun 14:57:31 14:58:16 11° 126° (SE) 14:59:01 145.800 FM
Gurwin Techsat 1B 18 Jun 15:11:20 15:15:18 22° 68° (ENE) 15:19:17 435.225 FM
ITAMSAT 1 18 Jun 15:19:20 15:24:02 35° 262° (W) 15:28:48 435.822 SSB
AO-27 18 Jun 15:20:16 15:24:55 33° 262° (W) 15:29:38 436.795 MHz FM
Oscar 16 18 Jun 15:44:03 15:46:35 14° 267° (W) 15:49:07 437.025 USB, Beacon 2401.1428
Uribyol 2 18 Jun 15:55:14 15:58:08 15° 267° (W) 16:01:04 436.500 FM
AO-Echo 18 Jun 16:07:29 16:11:35 30° 263° (W) 16:15:45 ?
TMSAT-1 18 Jun 16:09:54 16:15:03 55° 74° (ENE) 16:20:13 436.925 FM
Uosat F 18 Jun 16:25:09 16:30:04 59° 259° (W) 16:35:02 435.120 FM
AO-7 18 Jun 16:29:41 16:37:08 38° 64° (ENE) 16:44:36 29.400 - 29.500 MHz
ISS 18 Jun 16:31:22 16:34:34 51° 319° (NW) 16:37:47 145.800 FM
Gurwin Techsat 1B 18 Jun 16:50:05 16:54:59 38° 262° (W) 16:59:56 435.225 FM
KITSAT 1 18 Jun 17:45:18 17:53:18 73° 113° (ESE) 18:01:22 435.175 FM
TMSAT-1 18 Jun 17:52:25 17:55:15 15° 267° (W) 17:58:06 436.925 FM
AO-7 18 Jun 18:22:01 18:29:43 42° 260° (W) 18:37:30 29.400 - 29.500 MHz
Hamsat 18 Jun 18:29:51 18:31:47 13° 67° (ENE) 18:33:43 145.90 MHz
MaSat-1 18 Jun 18:44:25 18:46:11 11° 105° (ESE) 18:47:51 437.345 MHz
STRAND 1 18 Jun 18:48:22 18:52:15 21° 95° (E) 18:56:05 ?
RS-15 18 Jun 19:14:11 19:20:52 17° 30° (NNE) 19:27:26 29.354 - 29.394 USB, Beacon 29.352 USB
KITSAT 1 18 Jun 19:43:10 19:49:23 24° 312° (NW) 19:55:39 435.175 FM
JAS-1B 18 Jun 19:46:21 19:53:36 64° 74° (ENE) 19:59:44 435.800 - 435.900 CW/SSB
SO-67 18 Jun 19:49:33 19:52:39 29° 74° (ENE) 19:55:46 435.3500 MHz FM
Hamsat 18 Jun 20:03:15 20:07:23 45° 261° (W) 20:11:35 145.90 MHz
MaSat-1 18 Jun 20:21:52 20:27:56 75° 292° (WNW) 20:32:37 437.345 MHz
STRAND 1 18 Jun 20:26:47 20:31:29 37° 289° (WNW) 20:36:09 ?
HO-68 18 Jun 20:44:22 20:49:41 23° 62° (ENE) 20:55:01 435.675 MHz FM
JAS-2 18 Jun 21:15:42 21:22:14 34° 70° (ENE) 21:28:13 435.800 - 435.900 CW/SSB, 435.910 FM
SO-67 18 Jun 21:24:42 21:26:08 12° 267° (W) 21:27:34 435.3500 MHz FM
RS-15 18 Jun 21:25:09 21:36:05 63° 57° (ENE) 21:46:48 29.354 - 29.394 USB, Beacon 29.352 USB
JAS-1B 18 Jun 21:39:58 21:44:20 17° 264° (W) 21:48:21 435.800 - 435.900 CW/SSB
Oscar 11 18 Jun 21:42:52 21:46:22 24° 71° (ENE) 21:49:53 145.825 FM, Beacon 2401.500 USB
PANSAT 18 Jun 21:47:20 21:50:25 22° 163° (SSE) 21:53:29 not established
OPAL 18 Jun 21:58:27 22:00:42 13° 63° (ENE) 22:02:57 ?
HO-68 18 Jun 22:29:50 22:36:49 58° 258° (WSW) 22:43:52 435.675 MHz FM
Saudisat 1A 18 Jun 22:30:09 22:34:38 66° 116° (ESE) 22:39:12 436.775 MHz
JAS-2 18 Jun 23:00:00 23:07:02 41° 261° (W) 23:13:32 435.800 - 435.900 CW/SSB, 435.910 FM
ISS 18 Jun 23:03:35 23:06:20 24° 36° (NE) 23:09:04 145.800 FM
Oscar 11 18 Jun 23:19:01 23:22:29 23° 264° (W) 23:25:58 145.825 FM, Beacon 2401.500 USB
PANSAT 18 Jun 23:26:46 23:30:24 39° 176° (S) 23:34:03 not established
OPAL 18 Jun 23:34:03 23:39:04 62° 257° (WSW) 23:44:01 ?
RS-15 18 Jun 23:38:40 23:47:33 30° 256° (WSW) 23:56:26 29.354 - 29.394 USB, Beacon 29.352 USB
Saudisat 1A 19 Jun 00:12:37 00:14:46 13° 312° (NW) 00:16:55 436.775 MHz
ISS 19 Jun 00:40:11 00:42:57 25° 230° (SW) 00:45:44 145.800 FM
PCSat 19 Jun 00:45:21 00:50:18 38° 109° (ESE) 00:55:17 145.825 MHz
SO-50 19 Jun 01:06:20 01:10:36 32° 112° (ESE) 01:14:49 436.795 FM
PANSAT 19 Jun 01:06:55 01:10:28 35° 189° (S) 01:14:02 not established
Sapphire 19 Jun 01:19:22 01:24:45 77° 114° (ESE) 01:30:10 437.095 MHz 1200 baud AX-25 AFSK
KITSAT 1 19 Jun 01:44:42 01:50:01 18° 44° (NE) 01:55:18 435.175 FM
ITAMSAT 1 19 Jun 02:00:07 02:01:24 11° 92° (E) 02:02:41 435.822 SSB
AO-27 19 Jun 02:00:41 02:02:25 12° 92° (E) 02:04:09 436.795 MHz FM
Oscar 16 19 Jun 02:18:31 02:22:53 28° 97° (E) 02:27:13 437.025 USB, Beacon 2401.1428

Developed and maintained by Chris Peat, Heavens-Above GmbH. Please read the updated FAQ before sending e-mail. Imprint. DLR
